Home   Weather   Dayton   Past weeks

Flag for USA Past Weather in Dayton, Ohio, USA — Yesterday and Last 2 Weeks

Now
75 °F

Passing clouds.


Feels Like: 73 °F
Forecast: 75 / 88 °F
Wind: 3 mph from Northeast

Location: Dayton / Wright-Patterson Air Force Base

Current Time: Jul 23, 2017 at 3:04:28 am

Latest Report: Jul 23, 2017 at 1:58 am


Visibility: 10 mi

Pressure: 29.80 "Hg

Humidity: 100%

Dew Point: 75 °F

Location of DaytonLocation

Past Weather in Dayton — Graph

°F

Dayton Temperature Yesterday

Maximum temperature yesterday: 88 °F (at 5:58 pm)
Minimum temperature yesterday: 71 °F (at 6:58 am)
Average temperature yesterday: 78 °F

High & Low Weather Summary for the Past Weeks

 TemperatureHumidityPressure
High89 °F (Jul 12, 4:58 pm)100% (Jul 8, 12:58 am)30.14 "Hg (Jul 8, 12:58 am)
Low54 °F (Jul 9, 6:58 am)35% (Jul 9, 12:58 pm)29.78 "Hg (Jul 22, 3:58 pm)
Average76 °F81%30.00 "Hg
* Reported Jul 8 12:58 am — Jul 23 12:58 am, Dayton. Weather by CustomWeather, © 2017

Note: Actual official high and low records may vary slightly from our data, if they occured in-between our weather recording intervals... More about our weather records

Advertising

Dayton Weather History for the Previous 24 Hours

Scroll right to see more
 ConditionsComfort  
Time TempWeatherWind HumidityBarometerVisibility
12:58 am
Sun, Jul 23
77 °FPassing clouds.No wind95%29.83 "Hg10 mi
11:58 pm
Sat, Jul 22
77 °FPassing clouds.No wind95%29.82 "Hg10 mi
6:58 pm85 °FPartly sunny.10 mph69%29.80 "Hg10 mi
5:58 pm88 °FScattered clouds.10 mph64%29.78 "Hg10 mi
4:58 pm87 °FBroken clouds.14 mph71%29.78 "Hg10 mi
4:13 pm88 °FBroken clouds.14 mph70%29.78 "Hg10 mi
3:58 pm86 °FThundershowers. Broken clouds.10 mph81%29.78 "Hg10 mi
3:28 pm82 °FLight rain. Partly sunny.12 mph84%29.78 "Hg10 mi
2:58 pm87 °FPartly sunny.9 mph73%29.80 "Hg10 mi
1:58 pm86 °FPartly sunny.12 mph78%29.80 "Hg10 mi
12:58 pm82 °FMostly cloudy.13 mph84%29.83 "Hg10 mi
11:58 am79 °FMore clouds than sun.6 mph88%29.87 "Hg10 mi
11:38 am79 °FThundershowers. Overcast.7 mph94%29.88 "Hg10 mi
10:58 am78 °FThundershowers. Mostly cloudy.8 mph93%29.89 "Hg10 mi
9:58 am76 °FBroken clouds.8 mph99%29.89 "Hg10 mi
8:58 am73 °FMore clouds than sun.7 mph100%29.87 "Hg10 mi
7:58 am72 °FMostly cloudy.No wind100%29.88 "Hg10 mi
6:58 am71 °FLight rain. More clouds than sun.No wind100%29.91 "Hg10 mi
6:27 am72 °FThunderstorms. Fog.7 mph100%29.91 "Hg6 mi
6:04 am75 °FStrong thunderstorms. Fog.25 mph100%29.90 "Hg3 mi
5:24 am75 °FThunderstorms. Mostly cloudy.9 mph100%29.85 "Hg7 mi
5:14 am75 °FThunderstorms. Fog.9 mph100%29.88 "Hg3 mi
4:58 am74 °FPartly cloudy.6 mph100%29.88 "Hg10 mi
3:58 am74 °FClear.5 mph100%29.89 "Hg10 mi
Weather by CustomWeather, © 2017

See weather overviewHow to use our weather pages